2020-079D (46830 NORAD) Tracking and Keplerian Element Data

This shows tracking and keplerian element data for the satellite.

Feedback or suggestion? Click here.




ElementValue
Catalog46830
Name2020-079D
Epoch Orbit259
Epoch Day328.12014645
Epoch Year2020
RAAN39.9974
Inclination97.2668
Eccentricity0.0009744
Argument of Perigee186.6223
Mean Anonmoly233.619
Mean Motion15.3114375
Decay Rate2.043E-05
L11 46830U 20079D 20328.12014645 .00002043 00000-0 70338-4 0 9991
L22 46830 97.2668 39.9974 0009744 186.6223 233.6190 15.31143750 2594

Live tracking and technical data element details for 2020-079D (NORAD 46830). 2020-079D can be tracked NOW for your location showing map with azimuth and elevation plus other details from your city location.

Track the satellite on the map from your city or location and see movement details for azimuth, elevation, latitude, longitude, range, height, and movement on the map or in text.







IsCatalogInMostPopularTable: catalog: 46830, numindb: 4
Update: records affected: 1



GetName: 46830 2020-079D

Hit Count: updated at: Tue, 24 Nov 2020 11:57:39 GMT